Regional Weather Roundup
Issued by NWS Midland/Odessa, TX

Skip options and go directly to product.
Home | Oldest Version | Next Version | Current Version | All | Text Only | Save Text | Print | Product List | Glossary On

Skip product version selection by date and time.   
853
ASUS44 KMAF 280602
RWRMAF
MIDLAND AREA WEATHER ROUNDUP
NATIONAL WEATHER SERVICE MIDLAND TX
100 AM CDT MON JUL 28 2014

...IN SOUTHWEST TEXAS AND SOUTHEAST NEW MEXICO...

CITY           SKY/WX    TMP DP  RH WIND       PRES   REMARKS
ALPINE         PTCLDY    79  56  45 W3        30.25R
ANDREWS        FAIR      83  56  39 SE9       30.15R
ARTESIA        MOCLDY    86  55  35 E8        30.14R
BIG SPRING     CLEAR     87  54  32 SE9       30.14R
CARLSBAD       PTCLDY    89  58  34 SE15      30.11R
DRYDEN           N/A     87  58  37 E9        30.05R
FORT STOCKTON  CLEAR     83  55  38 SE10      30.12R
GUAD PASS      PTCLDY    77  57  50 NE16        N/A
HOBBS          MOCLDY    81  55  41 E7        30.18R
MARFA          MOCLDY    75  57  53 E5        30.26R
MIDLAND AIRPK  CLEAR     87  55  34 SE8       30.14R
MIDLAND INTL   CLEAR     85  59  41 SE8       30.12R
ODESSA         CLEAR     87  58  37 S8        30.13R
PECOS          CLEAR     86  57  36 SE14      30.06S
PRESIDIO       FAIR      89  59  35 NE10      30.05R
SEMINOLE       CLEAR     80  55  42 E6        30.17R
SNYDER         CLEAR     84  60  43 SE7       30.12R
WINK           PTCLDY    88  59  37 SE12      30.08R
$$
...OTHER STATIONS IN TEXAS...

CITY           SKY/WX    TMP DP  RH WIND       PRES   REMARKS
ABILENE        CLEAR     83  62  49 S7        30.09R
AMARILLO       CLOUDY    74  53  48 E16       30.26S
AUSTIN         CLEAR     80  68  66 S9        30.07R
BROWNSVILLE    CLEAR     81  77  88 SE9       30.04F
CORPUS CHRISTI PTCLDY    79  75  87 S7        30.04S
DALLAS FTW     CLEAR     87  68  52 SW8       30.01S
DEL RIO        CLEAR     89  64  43 E13       30.00R
EL PASO        CLOUDY    83  55  38 N9        30.13R
HOUSTON INT    PTCLDY    82  76  81 SW6       30.06F
LUBBOCK        PTCLDY    80  57  45 SE8       30.16S
SAN ANGELO     CLEAR     84  59  42 S8        30.08R
SAN ANTONIO    CLEAR     80  69  69 SE7       30.08R
WACO           CLEAR     85  71  63 S13       30.03S
WICHITA FALLS  NOT AVBL
$$
...OTHER LOCATIONS IN NEW MEXICO...

CITY           SKY/WX    TMP DP  RH WIND       PRES   REMARKS
ALAMAGORDO     MOCLDY    88  48  25 SW18G29   30.15R
ALBUQUERQUE    CLOUDY    78  55  44 E15       30.33R
CANNON AFB     PTCLDY    77  62  60 E14       30.27S
CLOVIS         NOT AVBL
HOLLOMAN AFB   MOCLDY    83  53  35 N16       30.14R
ROSWELL        PTCLDY    82  52  35 NE6       30.16R
RUIDOSO        PTCLDY    68  46  45 S3        30.45R
SANTA FE       MOCLDY    64  58  80 N14       30.43R
TRUTH OR CONSE MOCLDY    80  51  36 NW13      30.20R
TUCUMCARI      CLOUDY    76  61  59 E10       30.26S
$$

USA.gov is the U.S. government's official web portal to all federal, state and local government web resources and services.